User: anonymous   Login
Location: Northam
(31.6525°S, 116.6655°E)
Time: 21:13:06
(UTC+08:00)
Language:

First-Move - Orbit

View from above orbital plane
View from above orbital plane
View from above satellite
View from above satellite

Ground track
Ground track

The orbit data is extracted from the following two-line orbital elements,

1 39439U 13066Z   21214.71321997  .00000675  00000-0  87043-4 0  9997
2 39439  97.6003 198.2137 0064955   8.6228 351.6085 14.82684616414802
Epoch (UTC): 02 August 2021 17:07:02
Eccentricity: 0.0064955
inclination: 97.6003°
perigee height: 575 km
apogee height: 666 km
right ascension of ascending node: 198.2137°
argument of perigee: 8.6228°
revolutions per day: 14.82684616
mean anomaly at epoch: 351.6085°
orbit number at epoch: 41480

The dashed part of the orbit path shows where the satellite is in the earth's shadow,  

DLR